This is the latest recevied weather packets stored in our database for station/object KD9NSC. If no packets are shown the sender has not sent any weather packets the latest 10 day(s).
| Time | Temp. | Humidity | Pressure | Rain* | Wind** | Luminosity | Snow |
|---|---|---|---|---|---|---|---|
| 1777407481 | 16.67° C | 69% | 1015.1 hPa | 0 mm | - | 58 W/m² | - |
| 1777407176 | 16.67° C | 69% | 1014.8 hPa | 0 mm | - | 112 W/m² | - |
| 1777406871 | 16.67° C | 69% | 1014.9 hPa | 0 mm | - | 44 W/m² | - |
| 1777406566 | 16.67° C | 69% | 1015.3 hPa | 0 mm | - | 113 W/m² | - |
| 1777406262 | 16.67° C | 70% | 1015.2 hPa | 0 mm | - | 229 W/m² | - |
| 1777405961 | 16.67° C | 68% | 1015.4 hPa | 0 mm | - | 66 W/m² | - |
| 1777405657 | 16.67° C | 68% | 1015.4 hPa | 0 mm | - | 27 W/m² | - |
| 1777405355 | 16.67° C | 66% | 1015.6 hPa | 0 mm | - | 92 W/m² | - |
| 1777405051 | 16.67° C | 69% | 1015.7 hPa | 0 mm | - | 23 W/m² | - |
| 1777404746 | 16.67° C | 70% | 1015.6 hPa | 0 mm | - | 60 W/m² | - |
| 1777404442 | 16.67° C | 70% | 1015.8 hPa | 0 mm | - | 98 W/m² | - |
| 1777404137 | 16.67° C | 67% | 1015.8 hPa | 0 mm | - | 25 W/m² | - |
| 1777403834 | 16.67° C | 67% | 1015.9 hPa | 0 mm | - | 25 W/m² | - |
| 1777403529 | 17.22° C | 69% | 1015.8 hPa | 0 mm | - | 45 W/m² | - |
| 1777403223 | 17.22° C | 66% | 1015.9 hPa | 0 mm | - | 59 W/m² | - |
| 1777402918 | 17.22° C | 67% | 1016.2 hPa | 0 mm | - | 33 W/m² | - |
| 1777402614 | 17.22° C | 64% | 1016 hPa | 0 mm | - | 69 W/m² | - |
| 1777402312 | 17.22° C | 67% | 1015.6 hPa | 0 mm | - | 26 W/m² | - |
| 1777402006 | 17.22° C | 66% | 1015.9 hPa | 0 mm | - | 29 W/m² | - |
| 1777401705 | 17.22° C | 66% | 1015.8 hPa | 0 mm | - | 32 W/m² | - |
| 1777401402 | 17.22° C | 68% | 1015.8 hPa | 0 mm | - | 27 W/m² | - |
| 1777401097 | 16.67° C | 67% | 1015.9 hPa | 0 mm | - | 168 W/m² | - |
| 1777400793 | 16.67° C | 65% | 1016 hPa | 0 mm | - | 172 W/m² | - |
| 1777400490 | 17.22° C | 68% | 1016.1 hPa | 0 mm | - | 308 W/m² | - |
| 1777400186 | 16.67° C | 70% | 1015.8 hPa | 0 mm | - | 71 W/m² | - |
* Rain latest hour (hover to see other rain measurements)
** Current wind speed in m/s (hover to see current wind gust speed)